Weather in Novoarhangel'skoe

Russia / Tomsk District     56°42′43″N   85°53′48″E
temp.,
°C
wind,
m/s
gust,
m/s
humid.,
%
clouds,
%
prec.,
mm/h
press.,
hPa
HPBL,
m
14 may, fri
fri1401:00+9nnw378472 0.1 1014222
04:00+9nw4981100 0.0 1015289
07:00+8nw510745 0.0 1016394
10:00+9nnw7967100 0.0 10181324
13:00+13nnw783763 0.0 10191684
16:00+13nw6830100 0.0 10191729
19:00+12nw5737100 0.0 10201429
22:00+9w3443100 0.0 102184
15 may, sat
sat1501:00+9sw3549100 0.0 1020142
04:00+10sw61445100 0.0 1018389
07:00+11wsw8174626 0.0 1017565
10:00+16wsw8134699 0.1 1016846
13:00+15wsw61257100 0.1 1016694
16:00+19w5954100 0.0 10141002
19:00+15wnw41091100 2.3 1014438
22:00+14wsw3893100 4.7 1014206
16 may, sun
sun1601:00+13w3894100 5.1 1014179
04:00+12nw1197100 0.0 101323
07:00+12ene2397100 0.5 1013169
10:00+13ne2295100 0.5 1012159
13:00+11ene2395100 1.8 1012172
16:00+12ne2289100 0.2 1012275
19:00+11nne4591100 0.2 1012400
22:00+10e119272 0.0 1012132
17 may, mon
mon1701:00+10ssw239273 0.0 101285
04:00+10ssw41092100 0.0 1009284
07:00+13sw7178797 0.3 1006554
10:00+16wnw71179100 0.2 10061297
13:00+10n7990100 0.4 1010559
16:00+11n6773100 0.0 1013938
19:00+8n4676100 0.1 1015955
22:00+8n2471100 0.0 1016611
18 may, tue
tue1801:00+6nnw1178100 0.0 101610
04:00+5ne118482 0.0 101510
07:00+7ene237899 0.0 1015223
10:00+9ene3369100 0.0 1014889
13:00+9ene4555100 0.1 10131159
16:00+11ene444196 0.0 10131523
19:00+11nne56415 0.0 10121852
22:00+5ne38588 0.0 1014164